Fort Sill, OK

11:34 PM CDT on April 27, 2017 (GMT -0500)
Post Army Air Field

Weather History for KFSI - March, 2014

Change the Weather History Date:

Saturday, March 29, 2014

  Actual Average Record
Temperature  
Mean Temperature 54 °F -  
Max Temperature 71 °F 67 °F 93 °F (1967)
Min Temperature 37 °F 44 °F 23 °F (1987)
Degree Days  
Heating Degree Days 11    
Growing Degree Days 4 (Base 50)    
Moisture  
Dew Point 34 °F    
Average Humidity 49    
Maximum Humidity 80    
Minimum Humidity 24    
Precipitation  
Precipitation 0.00 in - - ()
Sea Level Pressure  
Sea Level Pressure 30.21 in    
Wind  
Wind Speed 8 mph (NW)    
Max Wind Speed 13 mph    
Max Gust Speed -    
Visibility 10 miles    
Events      
Averages and records for this station are not official NWS values.
T = Trace of Precipitation, MM = Missing Value Source: NWS Daily Summary

Daily Weather History Graph

Daily Weather History Graph

Search for Another Location

Airport or City:

Trip Planner

Search our weather history database for the weather conditions in past years. The results will help you decide how hot, cold, wet, or windy it might be!

Date:

Astronomy

Mar. 29, 2014 Rise Set
Actual Time 7:24 AM CDT 7:52 PM CDT
Civil Twilight 6:59 AM CDT 8:17 PM CDT
Nautical Twilight 6:29 AM CDT 8:47 PM CDT
Astronomical Twilight 5:59 AM CDT 9:17 PM CDT
Moon 6:31 AM CDT (3/29) 7:00 PM CDT (3/29)
Length of Visible Light 13h 18m
Length of Day
12h 27m
Waning Crescent, 2% of the Moon is Illuminated
Mar 29
Waning Crescent
Mar 30
New
Apr 7
First Quarter
Apr 15
Full
Apr 22
Last Quarter

Hourly Weather History & Observations

Time (CDT) Temp. Windchill Dew Point Humidity Pressure Visibility Wind Dir Wind Speed Gust Speed Precip Events Conditions
12:58 AM 45.9 °F 40.0 °F 34.2 °F 64% 30.13 in 10.0 mi NNE 12.7 mph - N/A   Clear
1:58 AM 43.0 °F 37.2 °F 34.2 °F 71% 30.14 in 10.0 mi NNE 10.4 mph - N/A   Clear
2:58 AM 40.3 °F 34.4 °F 32.7 °F 74% 30.16 in 10.0 mi North 9.2 mph - N/A   Clear
3:58 AM 41.2 °F 35.5 °F 33.3 °F 73% 30.19 in 10.0 mi North 9.2 mph - N/A   Scattered Clouds
4:58 AM 43.9 °F 42.3 °F 32.9 °F 65% 30.20 in 10.0 mi WNW 3.5 mph - N/A   Mostly Cloudy
5:58 AM 41.7 °F 39.8 °F 32.7 °F 70% 30.23 in 10.0 mi West 3.5 mph - N/A   Clear
6:58 AM 37.6 °F - 31.6 °F 79% 30.25 in 10.0 mi North 2.3 mph - N/A   Clear
7:58 AM 38.3 °F 34.8 °F 32.5 °F 80% 30.27 in 10.0 mi North 4.6 mph - N/A   Clear
8:58 AM 46.8 °F - 37.2 °F 69% 30.27 in 10.0 mi North 6.9 mph - N/A   Clear
9:58 AM 54.3 °F - 36.1 °F 50% 30.29 in 10.0 mi North 6.9 mph - N/A   Clear
10:58 AM 60.3 °F - 35.1 °F 39% 30.30 in 10.0 mi NW 6.9 mph - N/A   Clear
11:58 AM 63.1 °F - 34.2 °F 34% 30.30 in 10.0 mi Variable 4.6 mph - N/A   Clear
12:58 PM 66.4 °F - 35.2 °F 32% 30.29 in 10.0 mi Variable 2.3 mph - N/A   Clear
1:58 PM 68.2 °F - 34.0 °F 28% 30.26 in 10.0 mi Variable 2.3 mph - N/A   Clear
2:58 PM 69.4 °F - 32.7 °F 26% 30.23 in 10.0 mi West 5.8 mph - N/A   Clear
3:58 PM 71.2 °F - 34.5 °F 26% 30.21 in 10.0 mi WSW 9.2 mph - N/A   Clear
4:58 PM 71.4 °F - 32.2 °F 24% 30.19 in 10.0 mi South 4.6 mph - N/A   Clear
5:58 PM 70.7 °F - 32.0 °F 24% 30.17 in 10.0 mi South 3.5 mph - N/A   Clear
6:58 PM 68.7 °F - 33.1 °F 27% 30.16 in 10.0 mi SSE 10.4 mph - N/A   Clear
7:58 PM 62.4 °F - 34.0 °F 35% 30.15 in 10.0 mi South 5.8 mph - N/A   Clear
8:58 PM 59.5 °F - 35.2 °F 40% 30.16 in 10.0 mi South 6.9 mph - N/A   Clear
9:58 PM 57.2 °F - 35.1 °F 43% 30.18 in 10.0 mi South 8.1 mph - N/A   Clear
10:58 PM 55.0 °F - 34.9 °F 47% 30.17 in 10.0 mi SSE 6.9 mph - N/A   Clear
11:58 PM 52.9 °F - 34.7 °F 50% 30.17 in 10.0 mi SSE 4.6 mph - N/A   Clear